Preview of NWS' New Version of Forecast
This preview is not operational and should not be used for support decisions.

Regional Weather Roundup (RWR)

Issued by National Weather Service (NWS)

                            
000
ASUS46 KPQR 171510
RWROR 

OREGON REGIONAL WEATHER ROUNDUP
NATIONAL WEATHER SERVICE PORTLAND OR
800 AM PDT MON JUN 17 2019

NOTE: "FAIR" INDICATES FEW OR NO CLOUDS BELOW 12,000 FEET WITH
NO SIGNIFICANT WEATHER AND/OR OBSTRUCTIONS TO VISIBILITY.

ORZ001>013-171600-
NORTHWEST OREGON

  
CITY           SKY/WX    TMP DP  RH WIND       PRES   REMARKS
ASTORIA        CLOUDY    55  54  96 W6        30.16R FOG              
TILLAMOOK      CLOUDY    55  52  88 W3        30.17S                  
NEWPORT        CLOUDY    52  52 100 CALM      30.18S FOG              
PORTLAND       CLOUDY    60  51  72 N6        30.14R                  
VANCOUVER WA   CLOUDY    59  51  75 NW7       30.13S                  
SCAPPOOSE      CLOUDY    59  52  77 NE6       30.13R                  
HILLSBORO      SUNNY     59  51  75 CALM      30.13R                  
AURORA         PTSUNNY   60  52  74 NE5       30.14R                  
MCMINNVILLE    SUNNY     59  52  77 CALM      30.13R                  
SALEM          SUNNY     61  52  72 N5        30.12R                  
CORVALLIS      SUNNY     59  52  77 NW7       30.13S                  
EUGENE         MOSUNNY   60  53  77 N6        30.13R                  
$$

ORZ021-028-171600-
SOUTHWEST OREGON

  
CITY           SKY/WX    TMP DP  RH WIND       PRES   REMARKS
NORTH BEND     CLOUDY    53  52  96 N7        30.15S FOG              
BROOKINGS      SUNNY     75  49  39 VRB7      29.99S                  
ROSEBURG       SUNNY     63  51  65 CALM      30.11R                  
SEXTON SUMMIT  SUNNY     57  47  69 NE10G23   30.13R                  
GRANTS PASS    FAIR      64  50  59 CALM      30.10S                  
MEDFORD        SUNNY     63  49  60 N3        30.08R                  
$$

ORZ014>016-041-171600-
COLUMBIA GORGE

  
CITY           SKY/WX    TMP DP  RH WIND       PRES   REMARKS
TROUTDALE      CLOUDY    59  51  75 VRB3      30.13R                  
HOOD RIVER     SUNNY     66  52  59 NW3       30.03R                  
THE DALLES     SUNNY     66  53  63 NW13G18   29.99R                  
$$

ORZ029>031-041-044-049-050-061>064-502-503-505>511-171600-
EASTERN OREGON

  
CITY           SKY/WX    TMP DP  RH WIND       PRES   REMARKS
MADRAS         SUNNY     63  45  51 MISG      30.10R                  
REDMOND        SUNNY     64  44  48 CALM      30.10R                  
BEND           SUNNY     64  41  42 W5        30.10S                  
PRINEVILLE     SUNNY     59  41  51 E3        30.10S                  
KLAMATH FALLS  SUNNY     64  41  42 N10       30.10S                  
LAKEVIEW       SUNNY     61  42  49 N17G24    30.12R                  
HERMISTON      SUNNY     71  51  49 W13       29.97R                  
PENDLETON      SUNNY     67  48  50 S5        30.00R                  
JOHN DAY       MOSUNNY   62  44  51 CALM      30.10R                  
MEACHAM        SUNNY     61  44  53 CALM      30.07R                  
LA GRANDE      SUNNY     66  46  48 NW14      30.03R                  
BAKER CITY     MOSUNNY   63  50  62 W6        30.04R                  
BURNS          MOSUNNY   65  41  41 NW7       30.08S                  
ROME             N/A     69  45  41 VRB3      30.04S                  
ONTARIO        SUNNY     75  47  36 CALM      29.96R                  
$$